Location: Newark
(44.6768°N, 22.5302°E)
Time: 23:09:08
(UTC+00:00)

CAS-6 - Pass Details

Date: 03 July 2022
Orbit: 613 x 635 km, 97.9° (Epoch: 07 August)

Event Time Altitude Azimuth Distance (km) Brightness Sun altitude
Exits shadow 20:39:13 35° 157° (SSE) 1,005 ? -17.5°
Maximum altitude 20:41:00 79° 76° (ENE) 641 ? -17.6°
Drops below altitude 10° 20:45:21 10° 349° (N) 2,000 ? -18.0°
Sets 20:47:32 0° 349° (NNW) 2,907 ? -18.2°
